DM5RC Weather Reports


time (UTC)temp
C
wind
direction
speed
KPH
gust
KPH
rain 1hr
cm
rain 24hr
cm
rain mn
cm
humidity
%
barometer
mb
20260508074323 9 58 8.0 9.7 0.00 4.50 0.05 90 1019.2
20260508073825 8 43 4.8 9.7 0.00 4.50 0.05 90 1019.2
20260508073326 9 53 4.8 8.0 0.00 4.50 0.05 91 1019.1
20260508072829 8 66 4.8 9.7 0.00 4.50 0.05 91 1019.1
20260508072326 8 61 4.8 9.7 0.00 4.50 0.05 92 1019.0
20260508071828 8 46 4.8 9.7 0.00 4.50 0.05 92 1019.0
20260508071315 8 49 4.8 11.3 0.00 4.50 0.05 92 1019.0
20260508070819 8 31 3.2 11.3 0.00 4.50 0.05 92 1018.9
20260508070322 8 46 4.8 8.0 0.00 4.50 0.05 92 1018.9
20260508065824 8 68 4.8 11.3 0.00 4.60 0.05 92 1018.9
20260508065343 8 45 6.4 11.3 0.00 4.60 0.05 92 1018.8
20260508064823 8 39 4.8 11.3 0.00 4.60 0.05 93 1018.7
20260508064346 8 51 3.2 11.3 0.00 4.60 0.05 93 1018.7
20260508063819 8 23 1.6 9.7 0.00 4.60 0.05 93 1018.6
20260508063321 8 61 3.2 11.3 0.00 4.60 0.05 93 1018.6
20260508062821 8 46 6.4 11.3 0.00 4.60 0.05 93 1018.6
20260508062321 8 36 6.4 11.3 0.00 4.60 0.05 93 1018.5
20260508061822 8 47 3.2 9.7 0.00 4.60 0.05 94 1018.5
20260508061322 8 33 3.2 9.7 0.00 4.60 0.05 93 1018.5
20260508060823 8 62 6.4 12.9 0.00 4.60 0.05 93 1018.4
20260508060346 8 358 6.4 12.9 0.00 4.60 0.05 93 1018.4
20260508055824 8 56 4.8 11.3 0.00 4.60 0.05 93 1018.4
20260508055346 8 82 4.8 9.7 0.00 4.60 0.05 94 1018.4
20260508054828 8 49 3.2 11.3 0.00 4.60 0.05 94 1018.3
20260508054331 7 354 3.2 11.3 0.00 4.60 0.05 94 1018.3
20260508053833 7 65 4.8 12.9 0.00 4.60 0.05 94 1018.2
20260508053313 7 18 4.8 11.3 0.00 4.60 0.05 93 1018.2
20260508052813 7 37 6.4 11.3 0.00 4.60 0.05 94 1018.2
20260508052312 7 46 3.2 12.9 0.00 4.60 0.05 94 1018.2
20260508051833 7 26 6.4 12.9 0.00 4.60 0.05 94 1018.2
20260508051314 7 44 4.8 9.7 0.00 4.60 0.05 93 1018.2
20260508050813 7 42 4.8 12.9 0.00 4.60 0.05 93 1018.3
20260508050330 7 34 4.8 12.9 0.00 4.60 0.05 93 1018.2
20260508045831 7 64 3.2 12.9 0.00 4.80 0.05 93 1018.2
20260508045314 7 51 8.0 12.9 0.00 4.80 0.05 93 1018.1
20260508044816 7 50 8.0 12.9 0.00 4.80 0.05 93 1018.1
20260508044338 7 44 6.4 12.9 0.00 4.80 0.05 93 1018.1
20260508043820 7 51 4.8 12.9 0.00 4.80 0.05 93 1018.0
20260508043343 7 44 4.8 12.9 0.00 4.80 0.05 93 1018.0
20260508042844 7 31 6.4 12.9 0.00 4.80 0.05 93 1018.0
20260508042325 7 49 3.2 9.7 0.00 4.80 0.05 93 1017.9
20260508041829 7 13 4.8 14.5 0.00 4.80 0.05 93 1017.8
20260508041331 7 53 4.8 11.3 0.00 4.80 0.05 93 1017.7
20260508040835 7 57 3.2 8.0 0.00 4.80 0.05 93 1017.7
20260508040317 7 61 3.2 11.3 0.00 4.80 0.05 93 1017.7
20260508035818 7 58 4.8 12.9 0.00 5.31 0.05 93 1017.7
20260508035318 7 18 6.4 12.9 0.00 5.31 0.05 93 1017.7
20260508034822 7 52 4.8 12.9 0.00 5.31 0.05 93 1017.6
20260508034325 7 46 4.8 14.5 0.00 5.31 0.05 94 1017.7
20260508033828 7 39 6.4 14.5 0.00 5.31 0.05 94 1017.6
20260508033352 7 25 1.6 9.7 0.00 5.31 0.05 94 1017.7
20260508032813 7 20 3.2 11.3 0.00 5.31 0.05 94 1017.6
20260508032315 7 337 3.2 12.9 0.00 5.31 0.05 94 1017.6
20260508031837 7 53 3.2 9.7 0.00 5.31 0.05 94 1017.6
20260508031319 7 42 4.8 11.3 0.00 5.31 0.05 94 1017.5
20260508030824 7 61 3.2 11.3 0.00 5.31 0.05 94 1017.5
20260508030348 7 61 4.8 11.3 0.00 5.31 0.05 94 1017.5
20260508025824 7 59 4.8 12.9 0.00 5.99 0.05 94 1017.6
20260508025348 7 45 6.4 12.9 0.00 5.99 0.05 94 1017.5
20260508024830 7 41 4.8 12.9 0.00 5.99 0.05 94 1017.5
20260508024314 7 25 4.8 12.9 0.00 5.99 0.05 94 1017.5
20260508023817 7 57 3.2 12.9 0.00 5.99 0.05 94 1017.5
20260508023319 7 357 3.2 11.3 0.00 5.99 0.05 94 1017.5
20260508022822 7 31 4.8 9.7 0.00 5.99 0.05 94 1017.5
20260508022344 7 43 1.6 9.7 0.00 5.99 0.05 94 1017.5
20260508021825 7 18 3.2 8.0 0.00 5.99 0.05 94 1017.5
20260508021325 7 14 3.2 8.0 0.00 5.99 0.05 94 1017.5
20260508020827 7 340 3.2 8.0 0.00 5.99 0.05 94 1017.5
20260508020314 7 9 3.2 8.0 0.00 5.99 0.05 94 1017.4
20260508015816 7 2 3.2 8.0 0.00 6.60 0.05 94 1017.4
20260508015335 7 24 3.2 9.7 0.00 6.60 0.05 94 1017.4
20260508014816 7 62 3.2 11.3 0.00 6.60 0.05 94 1017.5
20260508014320 7 32 4.8 11.3 0.00 6.60 0.05 94 1017.4
20260508013851 7 55 3.2 6.4 0.00 6.60 0.05 94 1017.4
20260508013314 7 29 1.6 9.7 0.00 6.60 0.05 94 1017.4
20260508012818 7 55 3.2 8.0 0.00 6.60 0.05 94 1017.3
20260508012320 7 57 3.2 12.9 0.00 6.60 0.05 94 1017.3
20260508011822 7 47 6.4 12.9 0.00 6.60 0.05 94 1017.2
20260508011325 7 48 3.2 12.9 0.00 6.60 0.05 94 1017.3
20260508010827 7 31 4.8 12.9 0.00 6.60 0.05 94 1017.2
20260508010328 7 39 3.2 11.3 0.00 6.60 0.05 95 1017.2
20260508005850 7 58 3.2 11.3 0.00 6.60 0.05 94 1017.2
20260508005314 7 7 3.2 9.7 0.00 6.60 0.05 95 1017.2
20260508004845 7 20 4.8 11.3 0.00 6.60 0.05 95 1017.2
20260508004326 7 51 4.8 11.3 0.00 6.60 0.05 95 1017.2
20260508003829 7 34 6.4 11.3 0.00 6.60 0.05 95 1017.1
20260508003330 7 8 4.8 11.3 0.10 6.60 0.05 95 1017.2
20260508002831 7 75 6.4 11.3 0.10 6.60 0.05 95 1017.2
20260508002351 7 8 4.8 11.3 0.10 6.60 0.05 95 1017.2
20260508001830 7 7 4.8 11.3 0.10 6.60 0.05 95 1017.3
20260508001324 7 36 3.2 9.7 0.10 6.60 0.05 95 1017.3
20260508000845 7 54 4.8 9.7 0.10 6.60 0.05 95 1017.3
20260508000327 7 34 3.2 8.0 0.10 6.60 0.05 95 1017.3
20260507235847 7 40 3.2 9.7 0.10 6.60 0.05 95 1017.3
20260507235347 7 76 4.8 9.7 0.10 6.60 0.05 95 1017.3
20260507234826 7 34 4.8 8.0 0.10 6.60 0.05 95 1017.4
20260507234326 7 45 4.8 8.0 0.10 6.60 0.05 95 1017.5
20260507233827 7 53 3.2 8.0 0.10 6.60 0.05 95 1017.5
20260507233350 7 31 1.6 8.0 0.00 6.50 0.03 95 1017.4
20260507232851 7 51 3.2 8.0 0.00 6.50 0.03 95 1017.5
20260507232353 7 54 3.2 8.0 0.00 6.50 0.03 95 1017.5
20260507231814 7 68 3.2 9.7 0.00 6.50 0.03 95 1017.4
20260507231339 7 60 4.8 9.7 0.10 6.50 0.03 95 1017.4
20260507230821 7 50 4.8 9.7 0.10 6.50 0.03 95 1017.5
20260507230324 7 56 1.6 9.7 0.10 6.50 0.03 95 1017.6
20260507225828 7 54 3.2 9.7 0.20 6.50 0.03 95 1017.5
20260507225351 7 61 4.8 9.7 0.20 6.50 0.03 95 1017.5
20260507224813 7 55 3.2 8.0 0.20 6.50 0.03 95 1017.5
20260507223828 7 44 3.2 9.7 0.20 6.50 0.03 95 1017.5
20260507223332 7 51 4.8 9.7 0.20 6.50 0.03 94 1017.5
20260507222814 7 50 3.2 11.3 0.20 6.50 0.03 94 1017.5
20260507222317 7 64 4.8 11.3 0.20 6.50 0.03 94 1017.5
20260507221820 7 60 3.2 11.3 0.10 6.40 0.00 94 1017.5
20260507221343 7 39 3.2 11.3 0.10 6.40 0.00 94 1017.4
20260507220823 7 47 4.8 9.7 0.10 6.40 0.00 94 1017.4
20260507220324 7 65 4.8 9.7 0.10 6.40 0.00 93 1017.4
20260507215826 8 30 4.8 14.5 0.00 6.30 1.27 93 1017.4
20260507215329 8 58 6.4 14.5 0.00 6.30 1.27 93 1017.4
20260507214852 8 54 3.2 9.7 0.00 6.30 1.27 93 1017.3
20260507214314 8 65 3.2 11.3 0.00 6.30 1.27 93 1017.4
20260507213830 8 36 6.4 11.3 0.00 6.30 1.27 93 1017.4
20260507213313 8 61 4.8 11.3 0.00 6.30 1.27 93 1017.3
20260507212815 8 13 3.2 11.3 0.00 6.30 1.27 94 1017.2
20260507212318 8 59 6.4 11.3 0.00 6.30 1.27 94 1017.2
20260507211824 8 9 4.8 14.5 0.00 6.30 1.27 94 1017.1
20260507211328 8 46 6.4 14.5 0.00 6.30 1.27 94 1017.2
20260507210831 8 57 4.8 9.7 0.00 6.30 1.27 94 1017.1
20260507210352 8 46 4.8 11.3 0.00 6.30 1.27 94 1017.0
20260507205812 8 68 8.0 11.3 0.00 6.30 1.27 94 1017.0
20260507205334 8 41 4.8 9.7 0.00 6.30 1.27 94 1016.9
20260507204847 8 37 4.8 8.0 0.00 6.30 1.27 94 1016.9
20260507204327 8 37 3.2 8.0 0.00 6.30 1.27 94 1016.9
20260507203818 8 52 3.2 9.7 0.00 6.30 1.27 94 1016.8
20260507203319 8 57 3.2 9.7 0.00 6.30 1.27 94 1016.8
20260507202822 7 25 6.4 12.9 0.00 6.30 1.27 94 1016.8
20260507202322 7 51 6.4 12.9 0.00 6.30 1.27 94 1016.7
20260507201825 8 345 4.8 12.9 0.00 6.30 1.27 94 1016.7
20260507201313 8 39 6.4 12.9 0.00 6.30 1.27 94 1016.7
20260507200816 7 53 8.0 12.9 0.00 6.30 1.27 94 1016.7
20260507200336 8 45 4.8 12.9 0.00 6.30 1.27 95 1016.6
20260507195817 7 47 4.8 12.9 0.00 6.30 1.27 94 1016.6
20260507195318 7 27 4.8 12.9 0.00 6.30 1.27 95 1016.5
20260507194819 8 23 6.4 12.9 0.10 6.30 1.27 95 1016.5
20260507194320 8 51 4.8 11.3 0.10 6.30 1.27 95 1016.5
20260507193840 8 53 4.8 9.7 0.10 6.30 1.27 95 1016.5
20260507193319 8 51 4.8 9.7 0.10 6.30 1.27 95 1016.4
20260507192819 8 60 3.2 12.9 0.10 6.30 1.27 95 1016.3
20260507192339 8 47 3.2 12.9 0.10 6.30 1.27 95 1016.3
20260507191840 8 56 4.8 8.0 0.10 6.30 1.27 95 1016.2
20260507191320 8 46 4.8 8.0 0.10 6.30 1.27 95 1016.2
20260507190823 8 23 4.8 8.0 0.10 6.30 1.27 95 1016.1
20260507190325 8 3 1.6 8.0 0.10 6.30 1.27 95 1016.0
20260507185828 8 17 1.6 9.7 0.10 6.30 1.27 95 1015.9
20260507185330 8 29 4.8 9.7 0.10 6.30 1.27 95 1015.9
20260507184831 8 58 4.8 9.7 0.00 6.20 1.24 94 1015.9
20260507184331 8 1 4.8 8.0 0.00 6.20 1.24 95 1015.8
20260507183832 8 51 4.8 12.9 0.00 6.20 1.24 95 1015.7
20260507183314 8 32 6.4 12.9 0.00 6.20 1.24 95 1015.7
20260507182814 8 19 4.8 12.9 0.10 6.20 1.24 95 1015.6
20260507182316 8 67 4.8 12.9 0.10 6.20 1.24 95 1015.6
20260507181817 8 29 4.8 12.9 0.10 6.20 1.24 95 1015.5
20260507180828 8 56 6.4 11.3 0.20 6.20 1.24 95 1015.4
20260507180329 8 49 4.8 11.3 0.20 6.20 1.24 95 1015.4
20260507175850 8 336 4.8 11.3 0.20 6.20 1.24 95 1015.5
20260507175332 8 56 3.2 16.1 0.30 6.20 1.24 95 1015.4
20260507174834 8 51 8.0 16.1 0.30 6.20 1.24 95 1015.3
20260507174339 8 18 4.8 16.1 0.41 6.20 1.24 95 1015.3
20260507173819 8 33 6.4 14.5 0.51 6.20 1.24 95 1015.2
20260507173320 8 9 4.8 14.5 0.71 6.20 1.24 95 1015.1
20260507172841 8 359 4.8 17.7 0.71 6.10 1.22 95 1015.0
20260507172321 8 76 8.0 19.3 0.79 6.10 1.22 94 1015.0
20260507171821 8 8 9.7 19.3 0.89 6.10 1.22 94 1015.0
20260507171322 8 39 8.0 16.1 0.89 6.10 1.22 95 1015.0
20260507170822 8 34 8.0 20.9 0.99 5.99 1.19 95 1014.9
20260507170324 8 333 9.7 20.9 1.09 5.99 1.19 94 1014.9
20260507165825 8 30 6.4 12.9 1.09 5.99 1.19 95 1014.9
20260507165325 8 40 6.4 12.9 1.09 5.89 1.17 95 1014.9
20260507164826 8 44 8.0 12.9 1.09 5.89 1.17 95 1014.8
20260507164328 8 15 8.0 14.5 0.99 5.79 1.17 94 1014.7
20260507163831 8 20 9.7 14.5 0.99 5.69 1.14 94 1014.8
20260507163312 8 2 6.4 12.9 0.79 5.51 1.09 94 1014.8
20260507162833 8 13 4.8 16.1 0.79 5.41 1.09 94 1014.8
20260507162334 8 2 6.4 16.1 0.79 5.31 1.07 93 1014.7
20260507161814 8 47 4.8 12.9 0.71 5.21 1.04 94 1014.6
20260507161315 8 52 6.4 17.7 0.71 5.11 1.02 93 1014.6
20260507160818 8 352 9.7 17.7 0.61 5.00 0.99 93 1014.7
20260507160321 8 331 8.0 16.1 0.51 4.90 0.99 93 1014.7
20260507155824 8 37 6.4 16.1 0.51 4.90 0.99 93 1014.7
20260507155327 8 46 6.4 12.9 0.41 4.80 0.97 93 1014.6
20260507154829 8 344 6.4 12.9 0.41 4.80 0.97 93 1014.5
20260507154349 8 20 4.8 12.9 0.41 4.80 0.97 93 1014.5
20260507153849 8 328 4.8 12.9 0.30 4.70 0.94 92 1014.5
20260507153329 8 27 6.4 12.9 0.30 4.70 0.94 92 1014.4
20260507152831 8 350 4.8 17.7 0.20 4.60 0.91 92 1014.4
20260507152314 8 32 6.4 14.5 0.10 4.50 0.89 91 1014.4
20260507151816 8 56 4.8 12.9 0.10 4.50 0.89 91 1014.5
20260507151319 8 29 3.2 11.3 0.00 4.39 0.89 91 1014.5
20260507150822 8 53 4.8 11.3 0.00 4.39 0.89 90 1014.5
20260507150325 8 42 3.2 14.5 0.00 4.39 0.89 90 1014.5
20260507145830 8 36 6.4 17.7 0.00 4.39 0.89 89 1014.4
20260507145334 9 11 6.4 17.7 0.00 4.39 0.89 89 1014.4
20260507144817 9 18 8.0 14.5 0.00 4.39 0.89 89 1014.4
20260507144321 9 16 8.0 12.9 0.00 4.39 0.89 88 1014.3
20260507143827 9 352 4.8 12.9 0.00 4.39 0.89 88 1014.4
20260507143330 9 19 6.4 11.3 0.00 4.39 0.89 88 1014.4
20260507142814 9 44 4.8 16.1 0.00 4.39 0.89 88 1014.3
20260507142319 9 51 8.0 16.1 0.00 4.39 0.89 88 1014.3
20260507141823 9 43 8.0 12.9 0.00 4.39 0.89 89 1014.3
20260507141325 9 70 4.8 9.7 0.00 4.39 0.89 88 1014.3
20260507140830 9 117 4.8 16.1 0.00 4.39 0.89 88 1014.2
20260507140345 9 23 8.0 12.9 0.00 4.39 0.89 88 1014.2
20260507135827 9 47 4.8 14.5 0.00 4.39 0.89 89 1014.2
20260507135329 9 354 6.4 14.5 0.00 4.39 0.89 88 1014.1
20260507134813 9 50 4.8 14.5 0.00 4.39 0.89 88 1014.0
20260507134344 9 46 3.2 12.9 0.00 4.39 0.89 88 1014.1
20260507133846 9 63 6.4 16.1 0.00 4.39 0.89 89 1014.0
20260507133328 9 51 8.0 16.1 0.00 4.39 0.89 88 1013.9
20260507132831 9 44 6.4 16.1 0.00 4.39 0.89 89 1013.8
20260507132314 9 51 8.0 17.7 0.00 4.39 0.89 88 1013.8
20260507131817 9 48 9.7 17.7 0.00 4.39 0.89 88 1013.8
20260507131320 9 39 6.4 14.5 0.00 4.39 0.89 88 1013.7
20260507130823 9 61 8.0 14.5 0.00 4.39 0.89 88 1013.7
20260507130326 9 73 6.4 12.9 0.00 4.39 0.89 89 1013.5
20260507125827 9 334 6.4 14.5 0.00 4.39 0.89 89 1013.5
20260507125327 9 50 8.0 16.1 0.00 4.39 0.89 89 1013.4
20260507124829 9 39 8.0 25.7 0.00 4.39 0.89 89 1013.4
20260507124349 9 338 9.7 25.7 0.00 4.39 0.89 89 1013.4
20260507123849 9 51 6.4 16.1 0.00 4.39 0.89 89 1013.3
20260507123327 9 59 8.0 16.1 0.00 4.39 0.89 89 1013.2
20260507122829 9 49 6.4 17.7 0.00 4.39 0.89 89 1013.2
20260507122341 9 40 9.7 19.3 0.00 4.39 0.89 89 1013.2
20260507121822 10 348 4.8 16.1 0.00 4.39 0.89 91 1013.1
20260507121324 9 57 4.8 16.1 0.00 4.39 0.89 90 1013.1
20260507120827 9 14 8.0 17.7 0.00 4.39 0.89 90 1013.1
20260507120314 8 59 9.7 17.7 0.00 4.39 0.89 90 1013.0
20260507115836 8 48 9.7 16.1 0.00 4.39 0.89 91 1013.0
20260507115321 8 43 8.0 16.1 0.00 4.39 0.89 91 1013.0
20260507114826 8 56 9.7 16.1 0.00 4.39 0.89 91 1013.1
20260507114313 8 295 6.4 16.1 0.00 4.39 0.89 91 1013.0
20260507113816 8 46 6.4 16.1 0.00 4.39 0.89 91 1013.0
20260507113335 8 349 8.0 14.5 0.00 4.39 0.89 91 1012.9
20260507112815 8 53 6.4 14.5 0.00 4.39 0.89 92 1012.8
20260507112320 8 57 8.0 19.3 0.00 4.39 0.89 92 1012.8
20260507111825 8 45 11.3 19.3 0.00 4.39 0.89 92 1012.8
20260507111314 8 65 8.0 17.7 0.10 4.39 0.89 93 1012.9
20260507110816 8 70 8.0 17.7 0.20 4.39 0.89 94 1012.8
20260507110335 8 27 9.7 17.7 0.30 4.39 0.89 94 1012.7
20260507105817 8 341 8.0 17.7 0.51 4.39 0.89 94 1012.8
20260507105318 8 44 8.0 17.7 0.61 4.39 0.89 94 1012.7
20260507104818 8 43 6.4 14.5 0.71 4.39 0.89 95 1012.7
20260507104339 8 58 8.0 14.5 0.79 4.39 0.89 95 1012.7
20260507103818 8 79 6.4 16.1 0.79 4.39 0.89 95 1012.6
20260507103319 8 319 6.4 16.1 0.89 4.39 0.89 95 1012.6
20260507102824 8 37 9.7 17.7 0.99 4.39 0.89 95 1012.5
20260507102339 8 52 6.4 17.7 1.09 4.39 0.89 95 1012.5
20260507101822 8 16 6.4 11.3 1.19 4.39 0.89 95 1012.6
20260507101324 8 75 6.4 12.9 1.09 4.29 0.86 95 1012.6
20260507100828 8 58 8.0 12.9 1.09 4.19 0.84 95 1012.5
20260507100349 8 53 4.8 11.3 1.09 4.09 0.81 95 1012.5
20260507095829 8 352 4.8 11.3 1.09 3.91 0.79 95 1012.5
20260507095330 8 41 4.8 11.3 1.09 3.81 0.76 95 1012.4
20260507094833 8 33 4.8 11.3 1.19 3.71 0.74 94 1012.4
20260507094315 8 38 6.4 12.9 1.19 3.61 0.71 95 1012.4
20260507093817 8 54 8.0 16.1 1.19 3.51 0.71 94 1012.3
20260507093316 8 40 6.4 16.1 1.19 3.40 0.69 95 1012.2
20260507092817 7 65 4.8 16.1 1.19 3.40 0.69 94 1012.1
20260507092316 7 32 8.0 16.1 1.09 3.30 0.66 94 1012.1
20260507091324 8 63 4.8 14.5 1.09 3.20 0.64 94 1012.1
20260507090826 7 34 4.8 12.9 0.99 3.10 0.61 94 1012.1
20260507090328 8 57 6.4 12.9 0.89 3.00 0.61 94 1012.0
20260507085831 7 353 6.4 17.7 0.71 2.79 0.56 94 1011.9
20260507085332 7 30 9.7 17.7 0.51 2.59 0.51 94 1011.8
20260507084835 7 355 6.4 14.5 0.41 2.49 0.51 94 1011.8
20260507084336 7 27 4.8 14.5 0.30 2.39 0.48 94 1011.8
20260507083817 7 34 6.4 14.5 0.20 2.31 0.46 94 1011.7
20260507083319 7 60 6.4 17.7 0.10 2.21 0.43 93 1011.6
20260507082820 7 18 8.0 17.7 0.10 2.21 0.43 93 1011.6
20260507082321 8 43 8.0 16.1 0.10 2.21 0.43 94 1011.5
20260507081844 8 15 8.0 17.7 0.00 2.11 0.43 93 1011.4
20260507081326 7 43 6.4 17.7 0.00 2.11 0.43 93 1011.3
20260507080830 8 76 8.0 14.5 0.00 2.11 0.43 93 1011.2
20260507080314 8 42 6.4 20.9 0.00 2.11 0.43 94 1011.2
20260507075816 8 6 9.7 20.9 0.00 2.11 0.43 93 1011.2
20260507075320 7 73 9.7 17.7 0.00 2.11 0.43 93 1011.1
20260507074822 7 73 11.3 19.3 0.00 2.11 0.43 93 1011.1